Regional Weather Roundup
Issued by NWS

Home | Current Version | Previous Version | Text Only | Print | Product List | Glossary On
Versions: 1 2 3 4 5 6 7 8 9 10 11 12 13 14 15 16 17 18 19 20 21 22 23 24 25 26 27 28 29 30 31 32 33 34 35 36 37 38 39 40 41 42 43 44 45 46 47 48 49 50
000
ASUS46 KSEW 122310
RWRWA

WASHINGTON REGIONAL WEATHER ROUNDUP
NATIONAL WEATHER SERVICE SEATTLE WA
300 PM PST TUE DEC 12 2017

NOTE:"FAIR" INDICATES FEW OR NO CLOUDS BELOW 12,000 FEET WITH NO
SIGNIFICANT WEATHER AND/OR OBSTRUCTIONS TO VISIBILITY.

WAZ507-509-555>559-130000-
SEATTLE, TACOMA, EVERETT, AND VICINITY

CITY           SKY/WX    TMP DP  RH WIND       PRES   REMARKS
EVERETT        PTCLDY    45  29  53 N5        30.41F
BOEING FIELD   MOCLDY    47  36  65 N5        30.42F
RENTON         PTCLDY    44  35  70 NW5       30.41F
SEATAC AIRPORT MOCLDY    45  35  68 W3        30.40F
JBLM-MCCHORD   PTCLDY    46  36  68 N3        30.41S
PUYALLUP       FAIR      46  34  61 CALM      30.40S
BREMERTON      NOT AVBL
JBLM-FT LEWIS  PTCLDY    44  40  85 CALM      30.40F
TACOMA NARROWS PTCLDY    45  36  70 NW3       30.41F
$$

WAZ001-503-506-510-514-515-130000-
NORTH INTERIOR

CITY           SKY/WX    TMP DP  RH WIND       PRES   REMARKS
BELLINGHAM     CLEAR     47  38  71 N3        30.43F
FRIDAY HARBOR  CLEAR     45  37  73 N6        30.43F
EASTSOUND      CLEAR     45  41  87 NW3       30.44S
PORT ANGELES   CLEAR     46  42  86 E7        30.43R
EDIZ HOOK      FAIR      46  42  86 NE6       30.43S
PORT TOWNSEND  FAIR      48  37  66 VRB3      30.42F
NAS WHIDBEY    MOCLDY    49  36  61 CALM      30.46F
ARLINGTON      PTCLDY    45  32  60 CALM      30.42F
BURLINGTON     CLEAR     46  37  71 NW6       30.43S
$$

WAZ020-022-039-040-504-511-512-130000-
SOUTHWEST INTERIOR

CITY           SKY/WX    TMP DP  RH WIND       PRES   REMARKS
SHELTON        CLEAR     46  34  62 CALM      30.39F
OLYMPIA        PTCLDY    45  31  58 CALM      30.41F
CHEHALIS       FAIR      43  32  65 CALM      30.41S
KELSO          CLOUDY    43  29  57 SE8       30.43S
VANCOUVER      MOSUNNY   43  29  57 SE5       30.42F
SCAPPOOSE, OR  MOSUNNY   42  28  57 CALM      30.43R
PORTLAND, OR   PTSUNNY   42  28  57 SE9       30.43S
$$

WAZ021-516-517-130000-
WASHINGTON COAST

CITY           SKY/WX    TMP DP  RH WIND       PRES   REMARKS
FORKS          CLEAR     51  48  89 SW6       30.39S
HOQUIAM        SUNNY     47  38  71 E8        30.39F
ASTORIA, OR    MOSUNNY   50  32  50 E6        30.37F
$$

WAZ019-023-024-040-567>569-130000-
CASCADE MOUNTAINS AND COLUMBIA GORGE

CITY           SKY/WX    TMP DP  RH WIND       PRES   REMARKS
STAMPEDE PASS  CLOUDY    27  25  92 CALM      30.35F
TROUTDALE, OR  MOSUNNY   39  27  62 E22       30.42F
HOOD RIVER, OR CLOUDY    32  25  74 CALM      30.57F
THE DALLES, OR CLOUDY    35  24  64 NE3       30.60F
$$

WAZ026-027-041>044-520-521-130000-
EAST SLOPES

CITY           SKY/WX    TMP DP  RH WIND       PRES   REMARKS
OMAK           CLOUDY    30  27  88 CALM      30.57R
WENATCHEE      CLOUDY    29  23  78 E5        30.55
ELLENSBURG     CLOUDY    29  22  75 SE3       30.49F
YAKIMA         CLOUDY    33  24  69 CALM      30.55F
SUNNYSIDE ARPT CLOUDY    30  25  81 E5        30.58S
YAKIMA TC      CLOUDY    28  23  80 CALM      30.50F
$$

WAZ028-034-035-130000-
COLUMBIA BASIN

CITY           SKY/WX    TMP DP  RH WIND       PRES   REMARKS
EPHRATA        CLOUDY    29  21  72 CALM      30.55S
MOSES LAKE     CLOUDY    30  24  78 CALM      30.57S
PASCO          CLOUDY    33  25  72 SE3       30.61S
RICHLAND ARPT  CLOUDY    34  27  77 SW3       30.60F
HERMISTON, OR  CLOUDY    31  25  78 CALM      30.58F
$$

WAZ036>038-130000-
NORTHEAST WASHINGTON

CITY           SKY/WX    TMP DP  RH WIND       PRES   REMARKS
SPOKANE GEIGER CLOUDY    25  23  92 VRB3      30.49S FOG
SPOKANE FELTS  CLOUDY    28  24  85 W3        30.52S
FAIRCHILD AFB  CLOUDY    24  24 100 CALM      30.47F FOG
COEURDALENE,ID CLOUDY    28  24  85 W5        30.49R
DEER PARK      CLOUDY    26  24  92 CALM      30.51S
$$

WAZ029>033-130000-
SOUTHEAST WASHINGTON

CITY           SKY/WX    TMP DP  RH WIND       PRES   REMARKS
PULLMAN        CLOUDY    29  24  82 SW3       30.47S
LEWISTON, ID   MOCLDY    30  24  78 NW3       30.52F
WALLA WALLA    CLOUDY    30  23  75 CALM      30.55S
PENDLETON, OR  CLOUDY    27  22  81 CALM      30.52F
$$



USA.gov is the U.S. government's official web portal to all federal, state and local government web resources and services.